Time,TemperatureF,DewpointF,PressureIn,WindDirection,WindDirectionDegrees,WindSpeedMPH,WindSpeedGustMPH,Humidity,HourlyPrecipIn,Conditions,Clouds,dailyrainin,SoftwareType,DateUTC
2013-07-05 00:10:00,57.0,-99.9,-100.00,West,262,1.0,-999.0,-999,-99.99,,,-99.99,,2013-07-05 07:10:00,
2013-07-05 01:10:00,56.0,-99.9,-100.00,SW,216,3.0,-999.0,-999,-99.99,,,-99.99,,2013-07-05 08:10:00,
2013-07-05 03:10:00,53.0,-99.9,-100.00,WSW,243,3.0,-999.0,-999,-99.99,,,-99.99,,2013-07-05 10:10:00,
2013-07-05 05:10:00,52.0,-99.9,-100.00,SW,232,3.0,-999.0,-999,-99.99,,,-99.99,,2013-07-05 12:10:00,
2013-07-05 06:10:00,52.0,-99.9,-100.00,WSW,238,5.0,-999.0,-999,-99.99,,,-99.99,,2013-07-05 13:10:00,
2013-07-05 07:10:00,56.0,-99.9,-100.00,SW,234,2.0,-999.0,-999,-99.99,,,-99.99,,2013-07-05 14:10:00,
2013-07-05 08:09:00,56.0,-99.9,-100.00,SW,234,2.0,-999.0,-999,-99.99,,,-99.99,,2013-07-05 15:09:00,
2013-07-05 08:10:00,59.0,-99.9,-100.00,East,100,0.0,-999.0,-999,-99.99,,,-99.99,,2013-07-05 15:10:00,
2013-07-05 09:10:00,58.0,-99.9,-100.00,East,80,7.0,-999.0,-999,-99.99,,,-99.99,,2013-07-05 16:10:00,
2013-07-05 10:10:00,59.0,-99.9,-100.00,East,79,7.0,-999.0,-999,-99.99,,,-99.99,,2013-07-05 17:10:00,
2013-07-05 11:10:00,61.0,-99.9,-100.00,East,83,8.0,-999.0,-999,-99.99,,,-99.99,,2013-07-05 18:10:00,
2013-07-05 12:10:00,62.0,-99.9,-100.00,East,81,7.0,-999.0,-999,-99.99,,,-99.99,,2013-07-05 19:10:00,
2013-07-05 13:10:00,63.0,-99.9,-100.00,ENE,78,9.0,-999.0,-999,-99.99,,,-99.99,,2013-07-05 20:10:00,
2013-07-05 14:10:00,65.0,-99.9,-100.00,East,82,9.0,-999.0,-999,-99.99,,,-99.99,,2013-07-05 21:10:00,
2013-07-05 15:02:00,65.0,-99.9,-100.00,East,82,9.0,-999.0,-999,-99.99,,,-99.99,,2013-07-05 22:02:00,
2013-07-05 15:10:00,64.0,-99.9,-100.00,ENE,74,8.0,-999.0,-999,-99.99,,,-99.99,,2013-07-05 22:10:00,
2013-07-05 16:10:00,66.0,-99.9,-100.00,East,93,8.0,-999.0,-999,-99.99,,,-99.99,,2013-07-05 23:10:00,
2013-07-05 17:02:00,66.0,-99.9,-100.00,East,93,8.0,-999.0,-999,-99.99,,,-99.99,,2013-07-06 00:02:00,
2013-07-05 17:10:00,69.0,-99.9,-100.00,East,88,5.0,-999.0,-999,-99.99,,,-99.99,,2013-07-06 00:10:00,
2013-07-05 18:10:00,69.0,-99.9,-100.00,East,88,3.0,-999.0,-999,-99.99,,,-99.99,,2013-07-06 01:10:00,
2013-07-05 19:10:00,66.0,-99.9,-100.00,NE,42,2.0,-999.0,-999,-99.99,,,-99.99,,2013-07-06 02:10:00,
2013-07-05 20:10:00,70.0,-99.9,-100.00,SSW,193,1.0,-999.0,-999,-99.99,,,-99.99,,2013-07-06 03:10:00,
2013-07-05 21:10:00,64.0,-99.9,-100.00,NE,55,3.0,-999.0,-999,-99.99,,,-99.99,,2013-07-06 04:10:00,
2013-07-05 22:10:00,63.0,-99.9,-100.00,SW,233,5.0,-999.0,-999,-99.99,,,-99.99,,2013-07-06 05:10:00,
2013-07-05 23:10:00,60.0,-99.9,-100.00,SW,233,3.0,-999.0,-999,-99.99,,,-99.99,,2013-07-06 06:10:00,